Location: D�rnast
(49.6426°N, 11.9755°E)
Time: 13:24:34
(UTC+00:00)

Cosmos 1455 - Pass Details

Date: 24 January 2021
Orbit: 499 x 520 km, 82.5° (Epoch: 26 February)

Event Time Altitude Azimuth Distance (km) Brightness Sun altitude
Rises 17:48:11 0° 342° (NNW) 2,635 5.9 -18.2°
Reaches altitude 10° 17:50:25 10° 334° (NNW) 1,747 5.1 -18.5°
Maximum altitude 17:53:55 35° 268° (W) 847 3.9 -19.1°
Drops below altitude 10° 17:57:26 10° 201° (SSW) 1,744 5.2 -19.7°
Sets 17:59:40 0° 193° (SSW) 2,629 6.0 -20.0°
